GFSCGP_925_rhum_147.txt.gz
RH
16 19 23 19 17 13 12 12 11 8 8 8 10 10 9 8 11 27 40 49 47 46 41 43 45 47 50 55 59 64 67 71 71 75 79 80 80 79 75 65 67 56 38 69
22 25 19 16 14 11 12 11 12 10 8 8 9 10 9 8 16 35 48 48 48 48 47 45 46 47 54 59 63 67 71 75 77 80 82 84 83 82 82 78 72 68 59 49
24 20 16 14 14 14 13 12 12 13 10 8 9 12 10 12 38 42 43 43 45 49 52 51 48 50 57 63 67 72 74 77 79 81 81 82 83 84 84 82 76 69 61 54
20 16 16 14 15 14 15 13 13 11 12 16 13 22 12 15 46 47 44 50 52 51 51 51 50 54 58 63 68 75 79 82 80 85 87 86 86 87 86 87 86 80 71 55
23 15 17 18 16 13 15 16 17 16 16 17 16 23 17 14 49 49 48 49 51 50 54 57 52 53 59 67 72 79 82 82 84 92 89 89 90 90 91 90 88 84 77 71
20 13 16 16 14 12 15 14 15 16 19 38 22 24 23 22 45 47 45 50 51 50 54 53 50 57 65 68 74 81 82 85 89 96 90 91 94 94 94 93 91 89 84 73
21 18 14 14 17 15 15 20 33 39 37 42 22 26 29 41 41 44 53 56 54 54 58 59 63 66 72 71 79 84 87 88 95 96 90 94 96 96 96 96 96 95 88 75
29 31 20 16 18 22 22 24 56 55 54 45 21 19 46 40 41 43 48 54 54 58 58 58 66 70 74 74 81 87 90 93 98 96 94 97 97 98 99 97 98 99 82 70
34 26 17 17 15 18 24 28 20 43 35 45 26 37 36 42 46 46 52 56 60 59 60 62 67 75 73 78 81 86 93 96 100 99 99 98 97 98 100 100 100 86 70 55
31 38 19 18 17 17 17 23 44 44 45 38 28 29 43 54 55 53 60 62 59 58 61 68 72 76 72 78 81 84 90 96 100 99 100 98 99 99 100 100 98 100 81 55
25 53 31 25 29 24 25 44 35 42 54 62 55 49 46 58 57 63 61 57 56 61 66 69 74 70 74 77 81 83 85 90 94 100 100 100 99 100 100 100 100 100 94 78
35 61 55 30 24 19 21 33 41 71 43 51 63 59 50 55 58 62 61 57 55 58 63 68 71 71 77 79 79 81 80 85 91 95 97 95 99 100 100 100 100 100 100 99
34 65 57 41 33 24 28 23 26 38 50 57 72 69 49 51 60 60 66 61 60 57 62 69 74 77 78 81 80 78 78 82 88 89 97 95 97 99 100 100 100 100 98 100
46 48 57 52 45 41 38 29 26 38 69 53 50 68 63 64 67 65 62 60 57 58 61 67 81 74 71 76 74 73 75 77 83 88 88 91 94 97 99 100 100 100 100 98
59 66 47 43 45 40 32 32 29 53 48 60 44 42 66 72 70 72 60 56 57 55 56 65 77 76 69 72 70 69 73 74 79 85 89 91 92 93 98 99 100 100 99 100
57 72 50 54 44 44 25 36 36 32 37 35 36 38 58 61 62 73 66 58 60 56 57 61 64 64 70 68 66 68 72 74 76 85 88 92 91 91 97 99 100 100 100 100
68 65 59 78 56 51 46 34 36 58 48 42 55 65 66 66 72 81 70 64 61 55 54 59 61 59 60 63 64 67 69 72 75 82 85 91 91 94 96 99 100 100 100 100
73 59 69 53 44 58 34 22 17 27 39 37 60 78 68 65 78 73 62 62 60 53 53 54 53 53 58 61 63 64 67 72 76 80 83 88 94 94 96 98 100 100 100 100
50 60 81 72 47 37 41 33 37 37 44 32 73 68 60 61 78 78 58 53 52 52 50 51 51 53 59 62 64 65 69 73 76 83 84 93 96 90 98 99 100 100 100 100
47 55 72 68 52 60 59 31 29 30 86 60 63 68 69 56 94 90 63 56 49 47 49 52 53 57 62 65 67 68 74 77 82 89 85 95 99 91 96 99 100 100 100 100
64 64 66 61 83 74 45 36 31 56 80 64 68 71 77 89 87 70 59 49 46 49 50 52 56 61 67 71 74 75 80 81 88 89 92 97 98 96 94 95 98 98 100 100
60 65 72 70 87 88 39 38 51 78 69 69 72 75 81 78 70 63 54 50 50 52 54 56 60 63 69 75 83 86 90 87 90 92 93 98 99 100 99 96 94 96 97 97
69 73 72 68 77 59 50 60 58 60 67 70 73 70 72 75 71 62 57 54 55 58 60 62 65 67 70 76 85 92 95 98 92 95 95 99 100 100 98 100 96 94 95 95
48 40 80 66 59 58 50 46 55 54 60 66 63 64 67 74 67 66 59 61 64 67 69 71 74 75 77 82 88 92 100 100 97 97 97 98 100 100 100 93 99 100 98 95
71 50 75 70 68 52 50 55 60 57 55 54 57 59 65 68 68 74 72 71 74 76 77 79 84 83 87 88 93 93 100 100 99 97 97 100 98 100 100 100 98 100 100 100
67 75 94 98 60 65 60 56 57 64 73 65 67 69 64 65 70 82 78 78 79 83 82 88 91 91 90 93 98 97 100 100 98 98 98 99 99 99 100 100 100 97 97 96

GFSCGP_925_rhum_153.txt.gz
RH
17 20 23 18 22 19 18 19 20 16 10 11 13 11 9 43 61 65 63 62 62 61 54 57 58 59 56 46 46 62 68 67 73 78 80 79 80 80 80 83 84 85 86 86
21 27 20 16 17 20 21 23 24 18 10 11 12 12 13 43 61 60 61 65 63 60 57 57 60 62 60 54 54 59 69 71 78 83 85 90 92 87 88 86 86 88 89 89
23 20 20 21 23 24 25 23 18 12 11 10 10 13 11 58 56 55 58 59 59 63 62 60 63 68 57 54 56 56 69 74 79 82 87 91 91 88 86 86 89 91 93 93
23 18 18 19 25 25 30 19 15 13 15 18 13 22 15 61 62 59 60 63 64 64 62 64 69 70 62 58 56 57 62 77 84 86 92 96 94 91 90 90 90 90 94 95
26 23 25 22 21 22 25 17 17 16 19 17 16 18 18 62 69 67 65 63 65 64 67 72 74 67 60 59 60 61 69 77 84 88 91 94 95 95 94 92 92 93 94 96
26 18 20 23 19 20 19 16 24 26 22 25 20 17 25 78 63 62 62 62 63 64 68 71 71 59 59 58 60 68 79 79 82 84 84 87 92 95 94 94 95 95 95 96
23 22 19 16 17 15 16 20 31 28 28 30 21 21 17 53 53 54 62 66 65 66 73 78 80 71 65 65 66 75 78 81 78 81 80 87 94 95 96 97 95 97 96 97
45 49 26 22 21 21 22 24 48 43 42 37 29 30 32 58 61 59 60 65 66 68 74 78 76 71 69 66 70 71 75 76 74 80 82 90 94 95 96 98 98 99 100 99
44 40 23 21 19 17 24 26 26 44 45 52 38 58 57 59 65 64 68 66 70 68 75 76 71 69 71 68 67 70 73 72 74 83 86 94 96 95 95 98 99 100 100 100
36 44 24 19 17 18 24 26 37 49 40 38 32 50 58 71 70 66 71 70 71 68 74 74 72 71 72 64 64 67 70 72 78 82 89 93 92 93 96 98 98 99 100 100
33 46 32 21 28 28 31 45 39 43 50 52 54 41 52 58 61 69 71 68 71 70 75 74 70 70 66 64 66 68 71 74 78 84 89 91 92 92 95 98 99 100 100 100
40 61 52 30 26 22 21 35 46 68 51 58 66 39 63 57 64 69 68 68 66 71 73 72 68 72 67 67 66 69 73 77 79 86 87 86 89 92 94 96 98 100 100 100
49 66 92 52 38 29 24 26 32 54 59 58 65 44 61 62 66 67 69 70 68 68 70 70 70 77 71 69 68 70 73 76 77 83 84 84 87 92 94 94 97 100 100 100
53 64 59 61 48 47 37 30 29 68 84 41 42 52 75 68 70 71 68 70 66 67 70 69 80 79 70 70 70 71 74 73 78 81 87 91 88 92 95 92 97 99 100 100
68 86 65 46 38 42 47 45 48 80 52 73 66 50 37 67 70 72 70 68 65 66 71 67 85 81 72 72 70 72 74 74 80 87 94 95 91 92 94 92 96 98 100 100
79 97 88 67 54 53 56 60 70 69 47 48 45 45 53 57 69 73 67 65 66 68 69 66 76 75 74 74 76 74 75 78 83 91 96 94 91 91 93 93 95 96 100 100
98 98 99 92 62 80 97 77 72 70 57 52 56 45 74 77 72 76 74 67 66 64 63 70 76 75 74 75 76 77 78 81 88 96 96 92 94 95 94 95 96 97 100 100
93 99 96 97 88 95 60 47 53 62 61 55 54 68 68 68 76 78 68 70 64 61 62 69 73 74 76 79 79 81 84 90 94 91 93 94 96 98 97 96 98 98 100 100
68 90 98 95 85 74 56 38 51 63 63 53 64 75 78 74 71 77 62 62 63 64 67 73 74 75 78 82 82 84 87 97 90 92 97 97 99 99 98 97 100 99 99 99
61 69 80 95 96 94 59 43 34 35 58 65 72 82 81 71 89 90 66 60 61 64 68 73 77 77 79 86 88 86 93 95 97 100 100 99 100 98 97 96 100 99 97 95
95 95 94 95 94 84 56 45 35 55 62 70 72 77 78 89 89 76 62 63 66 70 70 73 77 80 82 87 92 89 97 96 97 100 97 97 100 98 95 97 100 97 95 93
87 93 95 97 95 90 48 43 50 67 76 76 78 78 84 80 72 70 65 66 70 74 77 78 78 82 83 87 93 96 99 99 98 100 96 96 100 99 97 100 98 93 94 92
85 80 85 80 80 64 68 61 69 64 72 76 77 73 72 73 72 70 73 73 75 78 86 79 83 88 85 88 97 100 100 98 96 99 96 100 99 100 100 100 99 94 95 93
54 62 81 68 69 81 71 68 67 69 76 72 68 69 71 79 77 79 77 78 77 82 90 84 89 92 94 93 99 100 99 99 99 97 100 100 100 98 99 93 100 99 97 94
76 69 86 95 83 78 76 71 70 71 71 69 69 70 76 79 82 80 80 73 80 91 88 91 96 94 99 98 99 100 100 100 100 98 99 100 100 100 99 96 93 99 100 98
73 77 82 94 84 79 82 78 81 89 80 71 75 80 75 77 82 76 80 84 93 94 91 94 98 99 96 96 98 99 97 97 100 99 100 100 100 100 98 98 95 90 94 96

GFSCGP_925_rhum_159.txt.gz
RH
18 19 22 18 18 16 18 19 18 18 16 15 16 14 13 41 44 52 50 51 50 51 56 61 62 57 56 58 59 63 64 68 81 77 75 68 67 71 75 80 87 92 93 94
21 23 21 19 18 19 20 20 19 18 16 17 15 13 13 44 43 43 47 51 52 56 55 59 58 56 58 60 63 64 67 74 79 76 78 80 78 78 81 84 87 93 95 96
25 24 22 20 20 21 22 22 24 19 18 13 12 12 30 42 51 50 50 49 52 53 54 56 54 57 57 57 64 65 70 74 77 80 74 73 70 69 70 78 81 86 94 97
22 20 22 24 24 23 29 22 21 22 21 22 14 20 15 39 45 53 51 55 53 54 55 56 53 53 57 61 65 67 68 71 72 80 76 78 75 74 80 83 82 87 91 94
32 24 24 25 24 22 27 25 25 24 22 19 18 18 16 43 48 47 53 55 55 55 55 56 53 56 60 64 66 68 70 70 74 78 82 77 79 81 81 81 84 85 90 96
28 21 20 21 21 22 23 21 21 22 21 24 20 18 18 29 30 40 52 56 59 58 60 61 60 61 59 64 65 68 69 67 73 77 80 82 86 84 80 81 81 85 90 96
52 40 22 19 21 20 18 22 30 28 26 29 21 19 18 28 38 41 53 56 58 60 64 60 54 56 62 62 64 66 70 67 72 77 80 83 88 84 83 80 80 87 92 96
65 56 36 24 26 36 24 23 35 44 34 28 24 22 17 51 55 49 48 53 60 64 63 59 58 63 65 65 66 71 72 68 71 76 79 82 86 80 83 81 83 87 93 97
54 51 31 24 23 27 31 30 24 38 39 37 27 25 58 60 61 61 61 61 63 64 63 59 60 66 65 65 67 74 75 71 72 78 80 82 84 82 85 88 88 89 91 95
50 59 34 23 21 23 28 25 36 55 87 74 37 28 23 56 60 64 65 64 64 64 64 60 60 67 66 66 68 73 76 74 78 81 83 84 86 86 92 93 88 89 92 98
48 58 47 24 30 30 30 36 33 36 40 47 49 34 30 42 54 62 62 61 64 65 63 61 64 70 67 66 68 71 76 76 78 81 85 90 92 91 94 95 88 88 94 97
64 79 80 57 36 24 24 31 31 48 41 40 37 34 47 50 51 54 56 60 61 63 64 59 64 69 68 69 68 70 75 77 80 83 88 95 98 93 93 96 88 88 92 95
54 84 82 62 59 47 44 42 40 58 70 46 55 47 56 53 56 55 57 59 61 64 64 63 79 78 78 76 74 74 76 79 82 85 91 93 95 94 90 96 89 87 91 95
62 74 77 74 63 60 62 50 36 47 68 58 46 36 53 61 60 60 59 59 61 65 64 64 84 82 76 80 80 79 79 84 86 88 92 90 92 91 88 95 90 88 92 98
54 58 52 58 60 59 57 53 58 64 45 54 43 38 30 50 60 60 57 63 65 66 62 64 81 84 85 85 86 84 83 85 90 90 85 91 92 93 92 95 92 89 96 97
89 77 85 84 67 67 69 62 50 54 51 43 39 37 25 42 57 60 61 63 64 64 60 65 68 75 84 82 80 80 85 88 94 89 93 90 88 91 95 90 90 93 96 93
69 82 78 70 70 72 89 74 67 69 53 45 59 45 39 44 60 64 66 62 64 61 61 66 77 80 75 79 82 80 84 89 87 91 90 88 87 91 96 90 91 96 92 92
74 81 73 70 69 79 47 52 51 60 59 54 47 45 52 56 70 66 60 62 62 60 70 87 74 68 74 80 82 82 85 85 86 86 86 90 95 97 94 86 92 90 88 95
68 66 77 77 62 46 46 44 51 61 58 50 57 54 71 71 66 73 58 55 63 81 92 75 72 73 74 78 83 82 85 86 84 87 87 95 99 96 93 82 90 92 88 90
72 74 79 80 83 62 49 40 37 45 60 46 56 69 75 66 73 74 61 60 63 65 67 71 72 74 76 81 87 84 83 82 87 86 91 94 93 92 86 83 84 92 88 86
89 88 84 75 72 49 48 39 41 55 51 66 71 72 72 82 76 68 59 60 62 65 69 70 72 75 82 89 88 84 80 84 86 87 90 93 92 87 87 90 81 82 81 85
60 80 88 75 78 78 48 47 51 60 80 76 75 74 79 76 71 66 64 64 66 66 66 71 72 78 87 91 87 81 81 89 92 86 84 87 90 86 89 88 83 81 80 83
73 62 65 68 61 70 71 76 71 69 76 78 74 71 69 72 67 65 68 68 68 66 70 76 77 79 88 92 92 89 94 97 91 81 82 84 84 85 89 89 89 85 85 86
73 68 77 75 72 76 79 76 74 69 72 69 67 65 64 69 68 69 67 67 66 71 76 79 78 80 86 93 96 96 93 87 82 78 80 82 87 87 85 89 88 88 92 91
74 74 82 74 87 81 80 75 72 69 66 65 62 62 66 68 70 66 70 71 71 74 80 81 80 84 92 94 96 98 98 84 78 77 79 84 85 87 84 86 94 92 96 96
69 82 85 84 78 73 77 74 69 70 70 66 68 70 66 65 67 69 72 73 73 77 80 81 86 89 94 95 99 100 99 88 84 76 79 89 84 86 85 84 83 89 88 88

GFSCGP_925_rhum_162.txt.gz
RH
17 23 26 20 18 18 18 20 20 18 12 13 13 13 11 13 20 19 22 25 29 32 36 42 42 41 38 46 47 50 49 57 55 48 48 47 47 52 54 61 70 77 80 82
21 28 22 18 17 17 18 21 21 18 14 14 15 16 13 11 19 17 19 24 29 33 39 41 40 41 43 44 48 47 49 54 54 50 55 58 56 54 56 58 67 71 78 82
29 23 18 21 21 21 22 24 24 22 17 16 16 18 16 11 17 19 20 22 27 32 37 38 38 40 41 44 49 47 50 52 56 62 50 50 46 44 46 56 57 67 74 79
23 19 22 23 25 22 31 24 23 22 22 26 14 20 15 15 22 26 27 26 29 32 34 35 35 37 43 47 50 50 54 52 54 62 57 60 52 49 56 56 60 66 70 76
25 23 24 26 26 23 28 22 23 22 24 25 22 21 16 13 18 21 26 29 32 34 36 36 34 37 41 50 52 54 52 53 58 63 64 60 58 57 56 58 63 63 65 72
27 18 21 23 20 21 19 20 21 21 23 32 23 23 18 16 17 16 18 25 33 36 39 38 39 40 41 50 51 54 53 51 58 61 63 65 68 68 63 63 60 59 64 68
33 26 22 22 27 19 19 23 29 28 28 24 17 20 17 17 21 22 20 26 34 40 43 40 36 35 40 46 50 51 52 50 56 60 63 66 67 65 62 64 62 67 64 67
47 43 34 30 32 28 26 26 36 40 30 23 18 23 16 24 30 30 30 30 38 43 45 39 37 39 42 48 51 55 55 51 55 60 64 65 67 63 63 66 70 67 68 71
54 47 30 26 27 27 34 38 29 43 37 40 26 18 22 27 29 36 33 36 45 47 45 41 43 45 45 48 54 61 59 54 57 63 64 64 68 70 71 76 75 71 72 73
48 52 28 27 23 23 28 24 39 51 82 79 38 32 25 28 28 38 41 43 47 47 45 43 44 49 47 49 51 60 61 57 61 65 67 68 72 75 78 82 79 77 75 78
45 51 28 28 31 33 30 35 34 42 52 54 42 26 23 26 24 34 38 42 47 48 45 44 48 51 49 50 51 55 59 60 63 66 71 75 80 81 81 85 85 78 78 78
43 52 47 34 28 29 27 28 31 56 50 37 36 32 25 27 28 31 35 43 44 45 44 44 51 55 53 53 53 53 60 63 66 68 73 78 80 83 79 81 87 81 78 79
49 50 52 40 36 42 44 36 36 36 50 47 53 36 26 31 34 34 38 44 46 45 45 48 72 82 67 64 60 59 59 64 67 69 73 74 80 84 81 83 90 83 79 81
41 49 44 43 28 42 59 54 42 53 93 57 62 49 28 24 37 38 42 43 45 45 49 53 88 100 94 77 68 65 64 67 71 70 71 76 81 83 84 88 87 81 82 84
34 53 42 38 33 32 31 33 32 52 46 64 47 35 28 26 29 36 39 43 44 48 51 55 84 100 94 96 86 70 70 70 73 71 73 76 77 78 82 87 84 79 84 81
55 64 47 46 32 27 31 27 27 31 34 28 30 36 21 20 27 34 38 42 46 49 50 53 60 75 90 82 69 66 70 72 72 74 75 74 77 80 86 83 76 77 78 76
52 56 60 66 37 42 74 50 40 51 37 34 49 36 28 29 36 37 40 42 47 48 51 55 63 77 75 72 66 66 66 70 71 74 72 75 82 87 86 77 72 76 80 79
54 55 55 61 47 82 34 20 29 33 38 40 40 40 37 35 47 51 41 45 47 49 53 66 77 87 66 63 64 67 68 70 70 70 70 77 89 84 84 76 70 76 80 79
40 52 64 70 48 34 27 23 27 42 41 25 38 38 35 50 51 56 46 44 47 51 67 83 82 59 56 57 61 60 60 63 66 70 74 81 85 83 79 81 73 75 73 75
28 42 61 55 59 55 27 24 30 33 57 27 30 35 46 55 57 56 50 52 60 68 59 54 55 54 56 61 61 58 59 63 69 72 75 76 84 78 76 80 72 70 69 71
64 63 76 65 64 40 22 18 23 50 38 44 45 45 52 68 66 57 53 51 52 57 57 52 52 54 59 62 60 57 58 64 70 69 69 73 75 75 77 76 74 67 67 72
39 59 66 62 67 62 20 24 40 39 52 52 55 54 65 65 61 56 50 51 51 50 51 50 52 56 61 62 59 56 60 64 67 63 62 66 72 73 76 82 77 71 72 74
55 38 44 56 68 38 49 48 54 56 56 60 60 60 60 61 57 52 53 53 48 48 49 50 53 60 65 65 63 60 66 60 60 58 58 60 66 67 71 76 84 79 78 79
42 37 55 42 35 36 50 56 59 63 72 57 57 54 54 57 55 54 50 46 47 49 51 53 55 58 64 67 67 65 64 59 53 53 56 57 62 64 67 72 75 83 84 83
42 48 52 43 37 60 59 66 76 66 59 54 52 50 53 55 56 52 50 47 50 54 56 56 58 62 64 66 66 65 62 59 53 54 57 62 60 62 62 72 83 80 87 90
50 72 65 65 47 55 53 72 66 62 60 54 54 55 52 52 55 52 52 54 54 55 57 59 61 63 65 66 68 68 66 64 62 55 60 70 64 65 66 67 70 82 83 85

GFSCGP_925_rhum_165.txt.gz
RH
24 23 25 19 20 17 17 18 18 14 12 14 14 14 12 10 11 13 12 16 18 21 22 29 31 33 32 40 39 42 42 47 43 37 38 38 39 41 43 47 54 63 68 71
24 25 16 16 19 19 19 22 20 15 12 15 16 16 13 12 11 12 12 14 17 20 23 31 34 34 34 38 40 38 39 44 42 39 41 45 43 42 43 45 53 56 63 68
23 19 15 18 20 23 24 24 23 22 18 17 18 19 16 13 12 10 12 11 14 19 25 32 33 34 36 37 41 38 40 42 48 52 38 40 36 34 35 44 47 54 60 65
16 15 15 20 22 20 25 18 20 22 26 28 16 22 13 10 12 11 14 14 14 18 23 29 31 33 35 40 43 41 44 42 45 53 46 52 42 40 45 44 48 56 56 60
23 17 19 19 19 16 18 15 21 23 24 22 19 21 16 11 13 14 15 16 17 19 25 28 30 30 33 41 44 46 43 44 50 53 55 50 49 48 47 48 54 52 53 56
23 16 18 17 16 18 18 23 22 22 22 29 20 20 16 13 13 13 14 18 19 21 26 29 30 32 35 46 47 47 42 43 50 52 55 57 58 58 53 52 53 50 54 54
23 18 18 18 22 19 21 25 29 28 29 27 13 14 12 14 14 15 14 16 21 26 31 34 33 33 32 40 45 42 43 41 48 52 54 56 58 56 52 52 52 59 55 57
37 34 23 19 22 23 23 23 32 32 28 22 14 20 14 15 17 19 21 15 23 29 35 36 33 31 36 41 44 46 44 41 46 51 55 56 58 54 55 57 63 61 60 62
30 25 24 27 21 24 31 32 24 39 33 41 29 21 13 16 18 21 20 22 28 33 37 38 33 34 36 39 49 53 47 43 47 53 56 55 59 63 64 67 68 66 66 66
37 45 36 32 25 25 30 27 59 61 72 61 31 24 21 19 20 21 25 28 34 36 39 37 36 38 37 39 48 53 50 47 51 56 59 60 64 67 68 69 72 75 72 71
34 45 31 25 30 26 32 37 32 35 62 48 43 28 19 23 20 25 25 29 35 39 40 38 38 40 40 41 43 49 51 51 54 57 62 66 68 70 70 70 74 77 78 73
30 44 37 27 25 17 23 40 38 56 54 46 42 37 17 22 21 22 26 30 35 38 39 38 41 44 43 42 42 45 52 54 56 57 63 66 69 71 71 74 77 79 78 75
36 37 38 28 19 16 27 44 29 26 34 68 58 49 18 24 24 23 25 31 36 40 39 40 62 56 51 51 49 47 50 54 58 58 60 65 70 72 71 75 80 79 78 77
37 28 37 49 33 33 79 82 61 72 84 50 48 48 33 26 23 27 28 32 37 40 40 44 94 100 76 63 58 54 56 59 59 58 61 65 68 69 70 77 79 76 76 75
28 40 28 22 18 18 20 22 37 55 58 65 44 37 28 22 22 23 21 31 36 39 40 48 81 99 98 92 71 60 62 60 62 60 61 63 66 68 73 76 73 70 73 74
30 48 30 31 22 19 20 16 16 16 15 15 18 19 13 13 14 16 18 28 34 38 41 47 63 74 83 74 61 58 62 63 61 64 62 63 69 73 76 74 69 68 72 74
39 48 46 48 30 32 58 29 25 40 24 24 36 21 16 17 24 26 25 28 32 36 42 49 56 64 66 63 57 57 56 61 62 64 61 66 72 74 74 71 69 67 68 70
38 45 43 52 38 62 31 20 19 20 21 24 25 24 23 24 28 39 33 34 38 39 43 48 57 70 63 51 51 54 55 57 58 59 60 67 74 72 70 70 71 66 64 68
35 40 58 64 49 32 23 17 18 23 23 18 24 23 20 23 41 44 36 32 39 41 46 58 68 57 46 46 48 48 48 52 57 61 63 66 72 68 67 69 71 67 63 65
28 32 52 53 56 57 28 16 14 18 43 20 19 19 24 42 55 49 42 40 44 55 64 61 53 44 46 48 48 45 47 53 57 59 61 63 64 64 67 69 63 64 61 63
44 42 53 54 54 39 22 17 17 45 36 37 42 34 34 52 58 48 47 51 53 50 49 48 42 44 48 48 47 45 46 49 54 54 55 57 60 58 59 68 63 58 57 64
60 89 76 60 62 76 23 19 30 25 24 40 41 42 59 58 55 53 49 48 48 47 43 41 42 45 48 48 44 42 43 46 49 48 48 50 55 56 56 59 62 61 61 66
46 32 38 45 58 32 33 38 41 45 45 49 50 51 53 55 52 47 48 46 42 40 39 41 46 50 50 48 46 49 47 42 43 43 44 46 53 51 57 62 64 68 70 72
35 27 56 37 28 28 33 34 42 42 55 63 60 50 52 54 50 48 45 41 38 39 39 43 46 49 52 52 50 46 46 42 39 41 44 45 53 51 55 63 66 71 78 77
42 62 81 46 33 26 31 38 42 50 55 68 69 59 49 51 49 45 42 38 39 42 44 45 48 50 50 48 47 47 46 45 41 44 49 51 52 53 52 63 85 74 85 82
44 58 74 74 32 36 35 47 56 64 60 57 55 50 45 46 46 41 42 43 45 46 47 48 48 48 48 49 50 51 52 53 50 48 53 62 56 57 58 59 62 80 81 84

GFSCGP_925_rhum_168.txt.gz
RH
28 29 26 21 20 20 19 20 20 16 13 13 13 14 12 10 12 13 12 15 16 19 20 25 28 30 30 41 42 40 45 47 41 38 38 40 41 41 43 48 53 58 62 68
20 31 23 16 15 17 20 21 20 17 15 14 14 14 13 12 13 12 13 13 16 18 21 28 31 32 32 39 39 39 39 43 42 39 40 44 43 41 42 45 48 54 59 63
19 17 15 18 17 16 21 24 23 23 18 17 18 20 18 12 11 12 12 13 13 18 23 34 34 35 35 39 40 36 39 42 50 47 39 43 36 34 39 46 47 55 56 59
16 14 14 17 18 18 23 17 18 20 22 28 19 30 19 14 12 12 12 15 15 17 23 33 35 36 37 40 41 40 41 41 48 52 48 49 44 43 46 46 51 54 53 56
26 19 17 17 17 15 21 17 16 17 22 26 25 23 16 13 14 12 13 15 17 20 28 34 34 35 36 42 45 44 43 45 52 54 55 53 55 53 49 50 54 51 54 55
19 20 22 18 15 16 16 17 18 20 26 37 26 22 19 14 12 12 13 14 18 26 34 34 32 33 40 45 48 48 40 46 51 53 55 57 58 57 54 52 51 58 57 57
24 24 22 20 21 19 19 28 41 37 39 36 18 20 18 12 12 13 15 17 22 27 36 34 34 33 41 46 46 47 41 44 50 53 55 56 58 54 54 56 62 64 61 63
37 37 22 16 20 24 22 26 41 42 37 28 16 22 17 14 14 17 14 18 23 35 37 36 35 34 36 43 47 40 42 42 48 52 55 56 58 59 59 65 68 66 67 68
46 28 16 21 22 18 26 29 22 39 35 44 28 21 16 15 17 18 17 19 28 36 40 38 37 35 37 41 46 48 42 43 49 53 56 56 60 65 66 68 69 72 72 73
64 75 28 26 31 26 24 22 46 77 88 64 38 30 25 31 29 22 22 29 36 40 42 41 38 38 37 42 51 52 46 47 52 57 60 63 65 68 69 68 71 75 77 77
44 66 42 30 52 45 38 42 56 64 84 88 64 37 29 28 35 36 28 35 39 42 43 42 41 39 38 42 51 52 50 52 55 58 62 66 69 70 71 72 76 78 79 77
39 52 74 37 36 27 28 45 46 69 58 54 49 41 21 30 29 33 30 32 39 41 43 42 41 42 42 43 43 50 54 56 56 58 64 69 71 72 71 74 78 77 78 77
41 44 48 34 26 20 26 39 48 68 80 87 82 57 24 31 28 41 43 38 38 42 42 44 57 54 48 45 44 47 50 55 57 57 60 67 68 69 70 77 78 75 74 75
35 34 39 50 34 30 50 38 32 48 94 88 65 47 31 31 33 49 42 46 49 43 43 76 98 100 59 54 51 50 56 57 57 58 61 66 68 69 72 74 74 70 72 73
29 42 30 24 20 18 20 20 21 35 56 81 62 56 35 29 25 21 27 37 41 42 50 74 93 100 90 79 61 58 59 59 59 60 60 64 68 70 73 73 71 68 70 71
29 43 33 33 23 20 21 19 19 19 19 19 21 21 13 14 17 16 16 21 36 41 48 68 75 81 84 81 61 60 62 62 61 63 61 65 70 70 72 70 67 68 67 68
38 62 48 55 33 31 49 34 27 36 25 23 35 27 22 24 22 21 25 32 42 46 54 63 64 68 70 59 57 55 56 60 60 60 60 67 70 68 68 68 69 69 66 69
46 53 53 66 47 78 32 21 21 23 28 24 21 22 24 25 24 37 34 35 39 52 57 57 59 62 64 55 52 55 53 56 57 59 60 65 69 65 66 66 66 65 63 66
32 41 54 64 58 39 30 20 18 20 23 16 22 22 25 20 29 46 37 38 58 59 54 58 62 60 51 48 45 46 49 52 55 58 60 62 63 61 64 67 63 61 60 63
25 34 51 58 63 63 37 22 17 19 43 21 38 45 54 65 44 69 46 52 52 53 58 60 55 50 45 45 44 43 47 52 53 56 57 58 57 55 59 62 60 58 60 64
57 48 57 59 66 48 28 21 20 68 56 37 39 49 58 90 83 63 56 56 56 57 55 55 47 44 44 45 43 43 45 48 50 50 51 53 53 49 56 56 58 60 61 66
43 62 91 71 65 70 21 21 34 38 41 41 35 59 68 60 57 54 52 50 47 49 48 41 42 44 44 43 40 39 40 44 44 43 45 48 51 52 56 60 60 64 67 75
48 36 44 62 93 60 41 51 51 64 60 53 53 54 53 57 54 50 50 49 46 43 39 40 44 46 44 42 43 42 38 38 39 41 42 49 52 52 59 67 68 76 76 79
34 25 44 43 36 34 34 35 42 36 45 47 47 46 48 54 49 51 48 47 47 46 42 44 46 46 48 45 42 41 39 36 38 42 45 49 55 52 60 72 73 82 81 83
47 40 48 51 49 49 47 33 42 50 45 59 58 48 49 54 56 56 59 59 51 42 41 43 47 48 44 42 41 41 43 38 43 48 53 53 56 56 58 82 86 82 84 86
48 59 70 75 51 59 65 74 64 81 59 54 64 63 57 62 75 69 66 58 46 41 44 48 47 44 43 44 46 48 50 51 48 52 62 63 62 63 64 65 71 72 72 82

GFSCGP_925_rhum_171.txt.gz
RH
40 48 45 35 34 31 32 32 30 24 19 19 20 19 16 14 13 20 24 24 24 28 35 31 30 34 37 39 40 44 47 45 41 40 40 41 41 43 47 48 56 54 59 62
30 44 37 28 25 24 24 27 29 24 19 20 24 21 18 16 15 18 19 22 22 32 34 35 35 39 37 41 41 40 44 43 41 40 40 41 40 42 46 51 53 52 57 59
31 26 21 30 31 30 26 24 27 30 24 24 26 28 24 18 15 15 15 16 18 28 37 38 38 45 39 39 39 40 42 45 42 47 44 41 42 46 44 52 53 55 55 58
28 23 19 20 21 25 30 20 22 24 27 34 23 37 27 23 21 18 14 15 18 25 36 38 41 47 42 41 39 40 42 47 50 52 48 50 51 50 51 54 52 57 53 59
22 24 28 28 22 19 23 21 21 25 26 29 26 37 28 20 20 16 16 15 15 29 39 42 44 46 46 41 42 42 43 48 53 54 56 55 57 54 53 52 60 56 58 61
22 18 20 28 25 23 21 23 26 24 32 45 29 34 28 22 18 14 12 19 30 41 42 44 44 50 47 45 45 44 45 51 53 55 57 58 57 56 56 60 61 61 64 66
29 25 19 19 29 27 22 30 54 53 54 48 28 33 28 20 18 19 25 41 41 42 44 44 53 53 54 49 49 45 47 51 53 55 57 58 58 59 63 65 67 71 71 73
45 51 25 19 24 32 30 32 63 58 52 42 28 35 23 20 22 21 26 39 42 45 42 46 52 52 54 51 48 44 44 50 52 55 57 59 62 65 67 68 70 72 74 76
96 62 49 35 24 25 30 36 27 42 38 54 43 29 20 17 25 23 35 43 49 47 44 44 50 52 51 48 44 44 46 50 53 56 58 63 65 68 69 70 74 75 76 77
76 86 51 42 41 31 36 27 41 85 90 75 51 45 37 40 38 33 44 50 51 47 45 44 50 49 53 52 49 46 49 53 57 59 64 67 69 70 72 74 76 76 76 77
46 68 51 45 70 59 53 54 71 81 98 93 80 57 37 42 40 39 48 51 51 50 49 52 48 51 57 54 52 49 52 56 58 61 66 70 71 71 72 74 76 76 77 77
53 68 82 64 50 45 60 69 90 99 99 99 79 64 36 53 51 43 49 47 51 51 50 48 50 54 58 55 53 53 55 56 58 63 68 70 70 70 74 76 74 75 75 74
47 70 80 56 59 52 62 90 78 76 98 91 97 80 49 48 59 53 64 61 63 54 52 55 67 64 57 56 53 54 56 57 57 61 67 68 70 74 74 73 72 70 69 69
47 61 69 80 52 34 45 46 41 69 91 72 75 70 44 44 55 57 67 58 64 63 51 83 92 80 58 52 54 56 57 57 58 61 65 69 70 72 73 71 70 69 70 72
46 63 58 51 32 27 26 24 22 37 45 66 43 44 41 37 39 52 45 46 53 60 75 78 84 90 71 59 59 58 59 59 60 61 67 70 70 72 71 70 69 68 67 68
67 72 46 50 37 33 32 28 27 27 25 22 21 28 34 20 18 17 22 28 39 55 73 80 81 80 78 64 63 62 61 62 63 62 67 70 71 69 69 69 70 66 68 66
83 79 79 73 48 52 73 46 40 49 38 38 46 33 24 24 24 24 26 26 38 69 76 79 79 78 78 67 62 62 62 61 62 64 68 70 68 68 67 67 65 64 68 69
66 64 75 88 66 90 53 37 31 36 35 32 28 32 31 37 44 45 51 44 62 70 73 70 72 75 69 61 57 58 60 60 60 62 68 66 65 67 66 67 62 63 63 72
48 60 82 83 72 53 43 32 33 35 36 26 26 34 55 64 57 68 57 64 74 73 71 71 70 68 68 67 55 54 56 58 59 61 62 63 60 61 62 63 62 62 69 72
36 43 63 75 75 68 34 24 23 40 70 44 51 57 68 71 92 90 72 67 70 69 69 77 78 69 58 50 50 52 54 55 58 58 59 57 56 58 59 59 62 64 71 76
69 83 71 58 69 52 34 32 27 53 56 40 49 52 78 92 86 76 65 68 65 65 60 56 51 48 46 45 47 51 52 53 53 54 55 54 53 59 59 62 65 66 70 76
61 82 91 93 90 82 49 54 60 68 76 78 70 79 91 89 89 87 78 69 62 58 54 48 48 48 45 45 44 46 48 47 46 49 51 52 54 61 64 67 72 64 70 82
71 52 69 60 78 66 57 58 52 55 67 78 87 77 79 77 70 63 58 57 57 51 45 47 48 47 44 40 40 41 43 42 42 48 51 51 60 67 67 70 74 68 70 85
49 40 64 58 42 46 49 47 59 65 57 66 80 73 64 66 60 58 56 52 48 46 49 48 48 47 47 43 41 39 38 40 42 50 54 53 60 71 70 76 76 75 80 89
67 61 62 60 54 52 51 53 62 74 76 75 83 72 61 62 62 57 55 53 56 59 63 62 53 50 45 42 42 42 40 44 48 55 58 59 59 71 75 80 79 77 88 94
61 70 82 77 58 59 55 67 75 88 86 72 71 67 57 55 60 60 67 60 57 60 54 53 50 46 46 45 48 49 48 50 56 59 65 65 66 68 71 73 74 71 73 83

GFSCGP_925_rhum_174.txt.gz
RH
36 49 48 40 37 31 33 38 42 35 28 22 24 23 21 17 14 20 37 38 38 38 39 41 47 46 46 45 45 44 40 44 44 43 44 42 46 52 55 55 54 57 56 61
39 45 43 40 35 36 38 42 42 33 26 27 26 28 25 19 18 18 30 33 32 45 40 44 50 50 48 46 44 44 42 41 41 40 41 42 47 52 57 53 58 56 60 64
38 32 26 35 43 45 41 39 36 32 25 26 26 28 25 21 17 17 24 25 28 40 40 46 48 50 48 46 46 45 43 42 41 41 44 44 49 56 55 57 56 62 63 67
24 21 27 28 28 33 43 31 32 32 31 38 24 37 28 24 24 22 20 23 25 37 37 43 48 54 50 45 45 45 45 44 48 46 45 48 52 58 60 61 59 64 64 66
23 23 27 30 30 24 29 25 28 30 32 28 30 36 27 24 27 23 19 20 20 38 38 44 50 51 49 46 47 47 47 50 52 52 52 54 56 59 64 60 61 67 69 69
27 19 20 24 22 24 28 28 28 26 34 42 31 32 29 28 24 19 16 15 20 39 40 47 51 51 52 47 47 48 51 55 54 55 55 55 56 59 59 61 66 71 74 74
37 33 26 21 25 21 30 32 54 50 53 46 30 36 28 24 20 23 22 20 28 42 49 59 55 56 55 53 51 52 53 57 56 57 58 59 61 62 65 69 72 74 76 79
84 74 32 43 27 27 28 34 60 56 48 38 29 40 33 23 24 44 47 49 50 53 54 57 57 56 57 55 54 53 55 58 56 58 62 65 66 68 72 74 73 74 75 78
91 79 45 35 47 35 31 39 31 46 43 58 47 34 24 30 40 49 52 53 55 59 59 59 58 58 56 51 51 52 56 58 59 64 65 66 68 70 74 74 74 73 77 80
65 86 51 44 44 43 38 32 46 75 76 75 52 45 47 54 58 58 60 61 58 57 58 57 58 58 55 50 51 55 56 59 62 66 68 69 70 72 74 73 72 75 76 76
56 80 61 46 53 60 70 83 86 77 88 82 73 66 60 72 61 63 61 57 53 52 54 57 57 60 59 55 56 58 59 60 65 68 70 69 71 73 73 71 73 75 74 75
52 67 89 60 45 49 70 82 98 99 99 100 81 83 78 76 65 69 67 61 56 52 55 54 61 64 61 62 60 59 59 60 66 69 69 69 73 73 72 70 73 71 69 71
46 69 82 59 61 58 86 94 95 90 100 95 97 98 71 60 67 74 78 70 66 55 56 60 68 70 67 64 64 60 58 62 68 68 70 73 74 72 69 71 74 69 71 72
50 61 67 73 58 47 55 70 62 77 93 70 78 59 44 55 59 64 80 73 73 76 64 64 86 87 70 69 65 59 58 60 67 70 71 72 73 70 71 72 69 68 69 67
54 74 74 63 57 57 46 35 37 50 50 58 38 33 36 36 44 57 54 60 62 65 61 68 79 90 80 73 65 59 60 62 66 70 70 72 72 71 69 69 68 68 68 71
85 80 69 60 47 43 44 40 38 36 32 28 30 31 23 34 38 46 44 47 44 58 67 67 68 75 73 73 71 62 62 65 65 69 71 70 70 69 68 66 67 74 69 72
90 98 95 82 58 59 77 56 49 59 38 41 54 38 36 38 36 34 36 28 30 38 70 70 68 69 70 69 67 69 64 64 67 69 69 70 69 68 66 64 69 72 74 72
82 84 96 86 93 94 51 42 39 45 44 38 34 33 30 59 60 78 75 72 55 58 73 70 68 71 71 69 69 67 67 66 69 68 66 69 68 66 66 63 68 71 71 77
67 81 98 91 91 62 48 36 31 32 44 39 42 42 61 63 64 75 74 76 78 74 71 75 74 73 73 72 70 65 68 68 68 65 65 68 62 65 64 63 68 70 68 72
56 67 76 93 90 93 41 32 37 32 49 47 55 55 64 64 68 86 80 79 80 76 76 78 84 85 74 80 96 83 69 68 67 64 61 62 62 61 63 64 66 67 58 61
76 80 78 72 74 64 47 51 42 64 49 64 76 78 77 79 76 78 80 80 76 82 82 81 79 81 86 84 74 67 64 66 62 59 58 60 59 61 62 65 57 61 64 63
63 89 97 96 96 90 44 44 47 57 64 67 68 76 86 88 83 83 81 77 75 76 73 64 61 66 71 59 58 59 60 61 58 54 57 60 63 64 66 63 58 64 69 72
66 57 73 73 82 61 51 53 52 58 70 74 75 76 86 86 86 82 78 74 67 55 50 49 49 54 53 52 52 54 56 57 53 52 58 63 64 66 65 63 65 70 76 77
54 45 66 56 47 46 47 46 54 63 62 77 77 82 83 86 84 73 67 64 57 50 51 50 49 47 48 47 48 46 48 50 51 54 64 66 69 71 71 71 72 77 81 85
66 60 60 67 54 54 55 50 54 60 67 79 90 86 84 76 68 64 64 56 52 53 51 50 50 49 48 43 43 46 45 48 55 56 65 71 75 73 78 77 78 83 91 86
69 68 83 64 53 59 62 56 62 76 81 79 89 92 83 62 62 57 59 59 61 71 86 86 72 60 51 47 49 48 46 48 60 62 62 68 72 75 78 83 88 85 89 100